Powrót do katalogu

COSMOS 970 DEB

AktywnyLEO
NORAD 10562·DEBRIS·🇷🇺 Russia

Wystrzelony Dec 21, 1977 z Baikonur Cosmodrome

Loading…

Następne Przeloty (najbliższe 24 godziny)

TLE

ŚwieżeSource: Space-Track

Epoka: Sep 13, 2026, 21:25 UTC

1 10562U 77121D   26256.89245696  .00000045  00000-0  22135-3 0  9997
2 10562  65.8690  64.1672 0085410  39.3200 125.1010 13.36819846373362

Śledź COSMOS 970 DEB w czasie rzeczywistym z AllMySat

Download on the App Store